Location: Boullarre
(49.1305°N, 3.0047°E)
Time: 06:25:08
(UTC+00:00)

SL-08 ROCKET BODY - Pass Details

Date: 19 October 2024
Orbit: 895 x 963 km, 82.9° (Epoch: 09 November)

Event Time Altitude Azimuth Distance (km) Brightness Sun altitude
Rises 04:36:47 0° 129° (SE) 3,623 8.2 -16.8°
Reaches altitude 10° 04:40:34 10° 106° (ESE) 2,672 7.9 -16.2°
Maximum altitude 04:43:32 14° 77° (ENE) 2,382 7.7 -15.7°
Drops below altitude 10° 04:46:28 10° 47° (NE) 2,659 7.5 -15.2°
Sets 04:50:13 0° 24° (NNE) 3,594 7.8 -14.6°
